[[{"header":{"parameterUnit":"m.s-1","parameterCategory":1,"la1":30.2991,"la2":30.254,"lo1":-89.0895,"lo2":-89.0444,"dy":0.0017,"dx":0.0017,"nx":28,"ny":28,"refTime":"2025-08-17T21:00:00:Z","depth":0,"parameterNumber":2,"parameterNumberName":"U-component_of_WINDS"},"data":[0,0,0,0,0,0,0,0,0,0,0,0,0,0,0,0,0,0,0,0,0,0,0,0,0,0,0,0,0,0,0,0,0,0,0,0,0,0,0,0,0,0,0,0,0,0,0,0,0,0,0,0,0,0,0,0,0,0,1.3173,1.3174,0,1.3321,1.3323,1.3324,1.3309,1.3307,1.3304,1.3302,1.3456,1.3462,1.3468,0,0,0,0,0,0,0,0,0,0,0,0,0,1.2875,1.2881,1.3172,1.3174,1.3176,1.3321,1.3323,1.3325,1.3309,1.3307,1.3304,1.3301,1.3454,1.3462,1.3469,0,0,0,0,0,0,0,0,0,0,0,0,0,1.3012,1.2883,1.3172,1.3186,1.3189,1.332,1.3323,1.3325,1.331,1.3307,1.3303,1.33,1.3452,1.3461,1.347,1.3598,0,0,1.3499,1.3503,0,0,0,0,0,0,0,0,1.3004,1.3023,1.3182,1.3185,1.3188,1.3293,1.3275,1.3417,1.3311,1.3264,1.3302,1.3298,1.3405,1.3418,1.3453,1.3606,1.3612,1.35,1.3505,1.3509,1.3512,0,0,0,0,0,0,0,1.2995,1.3017,1.3231,1.3184,1.3188,1.3185,1.32,1.3301,1.3352,1.3268,1.3267,1.3285,1.3406,1.3444,1.3457,1.3614,1.3499,1.3508,1.3514,1.3517,1.3876,1.388,0,0,0,0,0,0,1.2982,1.3009,1.3227,1.3236,1.3086,1.3193,1.321,1.3263,1.3351,1.3361,1.3288,1.3283,1.343,1.3446,1.3462,1.3616,1.3509,1.3518,1.3524,1.3872,1.3877,1.3881,0,0,0,0,0,0,1.2976,1.3002,1.3221,1.3122,1.315,1.3202,1.3261,1.3268,1.3306,1.3366,1.3375,1.3318,1.3428,1.3449,1.3564,1.3621,1.3522,1.3531,1.3868,1.3874,1.3879,1.3925,0,0,0,0,0,0,1.2967,1.2999,1.3049,1.3123,1.3155,1.332,1.3265,1.3273,1.3322,1.3318,1.3397,1.3406,1.3427,1.355,1.3573,1.3632,1.3538,1.3863,1.387,1.3877,1.3919,1.3932,1.3943,0,0,0,0,0,1.2957,1.3057,1.3051,1.3078,1.3218,1.3323,1.3341,1.3362,1.3327,1.3377,1.3415,1.3404,1.3611,1.3562,1.3588,1.3651,1.3859,1.3868,1.3877,1.3913,1.3929,1.3943,0,0,0,0,0,0,1.2989,1.3067,1.3062,1.3189,1.3249,1.332,1.3384,1.3379,1.3451,1.3444,1.3468,1.3486,1.3601,1.3638,1.3581,1.3778,1.373,1.3745,1.3749,1.3765,1.3777,1.3765,1.3546,0,0,0,0,0,1.3011,1.309,1.3154,1.326,1.329,1.3332,1.3379,1.3389,1.3453,1.3479,1.3525,1.3588,1.3666,1.3718,1.3795,1.3924,1.394,1.398,1.3992,1.4002,1.4014,1.4082,1.41,1.391,1.391,1.3909,0,0,1.3057,1.311,1.3158,1.3268,1.3316,1.3396,1.3354,1.3441,1.3501,1.3492,1.3602,1.3639,1.371,1.3832,1.3888,1.3866,1.407,1.4013,1.4021,1.4027,1.4093,1.4111,1.4127,1.3916,1.3915,1.3914,0,0,1.3182,1.323,1.3323,1.3371,1.3444,1.347,1.3492,1.3564,1.3587,1.3698,1.3692,1.3764,1.39,1.395,1.3993,1.4134,1.4126,1.4159,1.4222,1.4288,1.4303,1.4317,1.4364,1.4382,1.417,1.4171,1.4171,0,1.323,1.3351,1.3371,1.3459,1.3506,1.3501,1.3594,1.364,1.3735,1.3767,1.3741,1.391,1.3958,1.409,1.4124,1.416,1.4185,1.4149,1.4299,1.4313,1.4326,1.4372,1.439,1.4174,1.4174,1.4173,1.4173,0,1.3405,1.3489,1.3555,1.3644,1.37,1.379,1.3823,1.3876,1.3882,1.3911,1.4023,1.408,1.4166,1.4198,1.4206,1.4331,1.4315,1.4294,1.4246,1.4347,1.439,1.4408,1.4179,1.4177,1.4176,1.4176,0,0,1.3555,1.3652,1.3676,1.3715,1.3794,1.3859,1.3949,1.4032,1.4076,1.4141,1.4215,1.433,1.431,1.4359,1.4372,1.443,1.4535,1.4402,1.4404,1.4423,1.4674,1.4687,1.4707,1.453,1.4534,1.4537,1.4667,0,1.3685,1.3842,1.3862,1.4001,1.4078,1.4073,1.415,1.4207,1.4236,1.4305,1.4338,1.4417,1.4387,1.4415,1.4474,1.451,1.4585,1.4501,1.4598,1.4601,1.4578,1.473,1.4746,1.4865,1.4684,1.4687,1.4689,0,1.3858,1.3926,1.4073,1.4138,1.4171,1.4241,1.4317,1.4384,1.4447,1.4464,1.4517,1.4522,1.4613,1.4563,1.4687,1.4629,1.467,1.4694,1.4699,1.4708,1.465,1.4741,1.4905,1.4921,1.4717,1.4714,1.4712,0,1.3949,1.4077,1.4181,1.4215,1.4296,1.4344,1.438,1.4439,1.4487,1.4555,1.4585,1.4663,1.4705,1.4764,1.4789,1.475,1.4911,1.4864,1.4926,1.4926,1.4959,1.4957,1.513,1.499,1.4989,1.4989,1.4989,0,1.4091,1.418,1.4222,1.4286,1.4385,1.4407,1.4504,1.4538,1.4591,1.466,1.4662,1.4727,1.4757,1.4826,1.4847,1.4945,1.4965,1.498,1.4984,1.4979,1.4976,1.5004,1.4996,1.4994,1.4993,1.4992,1.4991,0,1.4209,1.4241,1.4353,1.4419,1.4438,1.4508,1.4564,1.4625,1.4653,1.4741,1.4763,1.4807,1.4888,1.4919,1.5019,1.5032,1.5145,1.5144,1.5123,1.5124,1.5184,1.5177,1.538,1.5406,1.5251,1.5252,1.5253,0,1.4296,1.4364,1.4438,1.4484,1.4521,1.4596,1.4644,1.4668,1.4718,1.4794,1.4845,1.4926,1.4992,1.5122,1.5163,1.5239,1.5237,1.5303,1.5249,1.524,1.5235,1.523,1.5235,1.5313,1.5314,1.5315,1.5317,0,1.4447,1.4459,1.4529,1.4604,1.4661,1.4721,1.478,1.4818,1.485,1.4907,1.4989,1.504,1.5141,1.522,1.5297,1.5334,1.533,1.5333,1.5351,1.5346,1.533,1.5336,1.5148,1.5328,1.5327,1.5326,1.5326,1.5325,1.4551,1.461,1.467,1.4747,1.4793,1.4847,1.4907,1.4942,1.5011,1.5094,1.5105,1.5193,1.5252,1.5355,1.5395,1.5464,1.5446,1.5473,1.5479,1.5485,1.5487,1.5321,1.5478,1.5478,1.5478,1.5477,1.5477,0,1.4699,1.4737,1.4808,1.4889,1.4949,1.4941,1.5004,1.5055,1.5132,1.5188,1.5252,1.5346,1.5422,1.5468,1.5545,1.5591,1.5591,1.561,1.5606,1.5613,1.55,1.5476,1.5608,1.5608,1.5608,1.5608,1.5608,1.5608,1.4784,1.4882,1.4901,1.5023,1.506,1.5146,1.5183,1.5232,1.5276,1.538,1.5444,1.5473,1.5525,1.5605,1.5674,1.5686,1.5712,1.5733,1.5742,1.5635,1.5622,1.5609,1.5586,1.5739,1.5739,1.5849,1.585,1.5851]},{"header":{"parameterUnit":"m.s-1","parameterCategory":1,"la1":30.2991,"la2":30.254,"lo1":-89.0895,"lo2":-89.0444,"dy":0.0017,"dx":0.0017,"nx":28,"ny":28,"refTime":"2025-08-17T21:00:00:Z","depth":0,"parameterNumber":3,"parameterNumberName":"V-component_of_WINDS"},"data":[0,0,0,0,0,0,0,0,0,0,0,0,0,0,0,0,0,0,0,0,0,0,0,0,0,0,0,0,0,0,0,0,0,0,0,0,0,0,0,0,0,0,0,0,0,0,0,0,0,0,0,0,0,0,0,0,0,0,2.5401,2.5402,0,2.5484,2.5485,2.5486,2.5461,2.5459,2.5458,2.5456,2.5539,2.5543,2.5546,0,0,0,0,0,0,0,0,0,0,0,0,0,2.5216,2.5219,2.5401,2.5402,2.5403,2.5484,2.5485,2.5486,2.5461,2.5459,2.5457,2.5455,2.5538,2.5542,2.5547,0,0,0,0,0,0,0,0,0,0,0,0,0,2.5297,2.522,2.5401,2.5401,2.5401,2.5484,2.5485,2.5486,2.5462,2.5459,2.5457,2.5454,2.5536,2.5542,2.5547,2.5634,0,0,2.5565,2.5567,0,0,0,0,0,0,0,0,2.5292,2.5304,2.54,2.5401,2.5402,2.546,2.545,2.5536,2.5462,2.5439,2.5456,2.5453,2.5514,2.5522,2.5543,2.5638,2.5642,2.5565,2.5569,2.5571,2.5573,0,0,0,0,0,0,0,2.5287,2.53,2.5434,2.5401,2.5402,2.5394,2.5403,2.5466,2.549,2.5441,2.5439,2.5449,2.5515,2.5538,2.5545,2.5643,2.5565,2.557,2.5574,2.5576,2.5805,2.5808,0,0,0,0,0,0,2.5281,2.5296,2.5431,2.5436,2.534,2.54,2.5409,2.5444,2.5489,2.5494,2.5451,2.5448,2.5529,2.5538,2.5548,2.5646,2.5571,2.5577,2.558,2.5802,2.5806,2.5808,0,0,0,0,0,0,2.5277,2.5293,2.5428,2.5365,2.5382,2.5406,2.5444,2.5447,2.5469,2.5497,2.5501,2.5471,2.5527,2.5539,2.5611,2.5649,2.5579,2.5584,2.5799,2.5803,2.5807,2.5848,0,0,0,0,0,0,2.5272,2.5292,2.5327,2.5367,2.5385,2.5492,2.5447,2.545,2.548,2.5476,2.5517,2.5521,2.5526,2.5603,2.5617,2.5656,2.5589,2.5796,2.5801,2.5806,2.5844,2.5853,2.5862,0,0,0,0,0,2.5265,2.5337,2.5329,2.5346,2.543,2.5495,2.5505,2.551,2.5483,2.5516,2.5533,2.552,2.5643,2.561,2.5626,2.5667,2.5793,2.58,2.5805,2.584,2.5851,2.5861,0,0,0,0,0,0,2.5303,2.5343,2.5334,2.5421,2.5454,2.549,2.5534,2.5524,2.5566,2.556,2.5564,2.5573,2.5645,2.5664,2.5627,2.5749,2.5714,2.5723,2.5735,2.5746,2.5755,2.5747,2.5594,0,0,0,0,0,2.5322,2.5372,2.5403,2.5477,2.5494,2.551,2.5539,2.5539,2.5574,2.5588,2.5611,2.5643,2.5689,2.5719,2.5763,2.5847,2.5852,2.5882,2.5891,2.5898,2.5905,2.5944,2.5956,2.5828,2.5828,2.5828,0,0,2.536,2.5388,2.542,2.5485,2.5511,2.5559,2.5523,2.5578,2.5613,2.5596,2.5664,2.5681,2.5718,2.5794,2.5829,2.5811,2.5942,2.5906,2.5912,2.5915,2.5951,2.5963,2.5974,2.5832,2.5831,2.5831,0,0,2.5454,2.5483,2.5544,2.5569,2.5608,2.5618,2.5632,2.5668,2.5678,2.5746,2.5732,2.5773,2.5854,2.5878,2.5901,2.5998,2.5984,2.6012,2.6058,2.6095,2.6105,2.6114,2.6143,2.6154,2.602,2.602,2.602,0,2.5497,2.5572,2.5576,2.563,2.5656,2.5642,2.5701,2.5726,2.5777,2.5794,2.5774,2.587,2.5894,2.5972,2.5995,2.6017,2.6029,2.6007,2.6104,2.6113,2.6121,2.6148,2.616,2.6023,2.6022,2.6022,2.6022,0,2.5619,2.5671,2.5715,2.5762,2.5793,2.585,2.586,2.5891,2.5888,2.5898,2.5964,2.5992,2.6038,2.6057,2.6056,2.6133,2.6121,2.6103,2.6066,2.6136,2.6161,2.6172,2.6027,2.6026,2.6025,2.6024,0,0,2.5742,2.5786,2.5802,2.582,2.5859,2.5897,2.5951,2.5995,2.6019,2.6054,2.6095,2.6161,2.6142,2.6168,2.6169,2.6203,2.6269,2.6179,2.618,2.6191,2.6349,2.6359,2.6372,2.6261,2.6264,2.6265,2.6344,0,2.5835,2.5929,2.5931,2.6016,2.6059,2.6044,2.6089,2.6116,2.6127,2.6164,2.6175,2.6219,2.6194,2.6209,2.6242,2.6254,2.63,2.6249,2.6296,2.6298,2.6284,2.6386,2.6399,2.6472,2.6355,2.6357,2.6358,0,2.5957,2.5992,2.608,2.6106,2.6125,2.6166,2.6202,2.624,2.6268,2.6273,2.6299,2.6293,2.6343,2.6307,2.6374,2.6339,2.6358,2.6366,2.6369,2.6371,2.633,2.6386,2.6497,2.6506,2.6375,2.6374,2.6372,0,2.6029,2.61,2.6159,2.6176,2.621,2.6238,2.6253,2.6279,2.6303,2.6335,2.635,2.6388,2.6408,2.6437,2.644,2.6414,2.6505,2.647,2.6506,2.6506,2.6524,2.6522,2.6634,2.6544,2.6544,2.6543,2.6543,0,2.6131,2.6184,2.6191,2.6228,2.6285,2.6286,2.6342,2.6355,2.6377,2.6413,2.6404,2.6438,2.6441,2.6476,2.6479,2.653,2.654,2.6543,2.6542,2.6541,2.654,2.6552,2.6545,2.6546,2.6546,2.6545,2.6545,0,2.6221,2.6229,2.6292,2.6317,2.6324,2.6365,2.6385,2.6418,2.6426,2.6471,2.6482,2.6494,2.6533,2.6539,2.6587,2.6588,2.6648,2.6644,2.6638,2.6636,2.667,2.6665,2.679,2.6804,2.6708,2.6709,2.671,0,2.6284,2.6323,2.6351,2.6374,2.6389,2.6428,2.6451,2.6452,2.6476,2.6508,2.6536,2.6574,2.6604,2.6666,2.6678,2.6712,2.6707,2.6748,2.6712,2.6708,2.6701,2.6697,2.6698,2.6754,2.6755,2.6756,2.6757,0,2.6391,2.6391,2.6425,2.6459,2.6486,2.6513,2.6539,2.6558,2.6562,2.6589,2.6628,2.6651,2.6696,2.6732,2.6765,2.6778,2.6766,2.6768,2.6777,2.6775,2.6768,2.6767,2.6652,2.6765,2.6764,2.6763,2.6763,2.6763,2.6466,2.6498,2.652,2.6556,2.6575,2.6597,2.6627,2.6637,2.667,2.6706,2.6705,2.6746,2.6768,2.681,2.6825,2.6856,2.6842,2.6857,2.686,2.6863,2.6863,2.6766,2.6863,2.6862,2.6862,2.6862,2.6862,0,2.6568,2.658,2.6614,2.6647,2.6675,2.6661,2.6687,2.671,2.6746,2.6768,2.6796,2.6838,2.6871,2.6884,2.6916,2.6937,2.6932,2.6945,2.6942,2.6944,2.6877,2.6863,2.6948,2.6948,2.6948,2.6948,2.6948,2.6948,2.6624,2.6675,2.6677,2.6735,2.6747,2.6787,2.6802,2.6821,2.6837,2.6883,2.691,2.6918,2.6935,2.6967,2.6995,2.6998,2.7008,2.7022,2.7022,2.6958,2.695,2.6941,2.6928,2.7026,2.7026,2.7087,2.7087,2.7088]}]]